Location: Heilbronn
(49.1548°N, 9.2780°E)
Time: 10:06:50
(UTC+01:00)

ISS - Pass Details

Date: 07 January 2018
Orbit: 402 x 407 km, 51.6° (Epoch: 21 January)

Event Time Altitude Azimuth Distance (km) Brightness Sun altitude
Exits shadow 07:28:36 10° 289° (WNW) 1,466 -1.7 -7.6°
Maximum altitude 07:31:54 85° 17° (NNE) 414 -3.8 -7.1°
Drops below altitude 10° 07:35:12 10° 108° (ESE) 1,468 0.7 -6.7°
Sets 07:37:17 0° 109° (ESE) 2,327 2.4 -6.3°
